Data supplied by UK-AIR on 5/4/2008
All Data GMT hour ending 
Status: R =Ratified P=Provisional,P*=As supplied
,,Bottesford,,,,,,,,,,,,,,,,,,,,,,,
Date,time,"Ozone",status,unit
 
01-01-1998,01:00,44,R,ugm-3
01-01-1998,02:00,44,R,ugm-3
01-01-1998,03:00,42,R,ugm-3
01-01-1998,04:00,42,R,ugm-3
01-01-1998,05:00,40,R,ugm-3
01-01-1998,06:00,54,R,ugm-3
01-01-1998,07:00,60,R,ugm-3
01-01-1998,08:00,62,R,ugm-3
01-01-1998,09:00,66,R,ugm-3
01-01-1998,10:00,70,R,ugm-3
01-01-1998,11:00,74,R,ugm-3
01-01-1998,12:00,74,R,ugm-3
01-01-1998,13:00,74,R,ugm-3
01-01-1998,14:00,76,R,ugm-3
01-01-1998,15:00,72,R,ugm-3
01-01-1998,16:00,76,R,ugm-3
01-01-1998,17:00,74,R,ugm-3
01-01-1998,18:00,76,R,ugm-3
01-01-1998,19:00,76,R,ugm-3
01-01-1998,20:00,76,R,ugm-3
01-01-1998,21:00,74,R,ugm-3
01-01-1998,22:00,72,R,ugm-3
01-01-1998,23:00,68,R,ugm-3
01-01-1998,24:00,70,R,ugm-3
02-01-1998,01:00,68,R,ugm-3
02-01-1998,02:00,68,R,ugm-3
02-01-1998,03:00,68,R,ugm-3
02-01-1998,04:00,68,R,ugm-3
02-01-1998,05:00,68,R,ugm-3
02-01-1998,06:00,66,R,ugm-3
02-01-1998,07:00,66,R,ugm-3
02-01-1998,08:00,62,R,ugm-3
02-01-1998,09:00,38,R,ugm-3
02-01-1998,10:00,40,R,ugm-3
02-01-1998,11:00,60,R,ugm-3
02-01-1998,12:00,56,R,ugm-3
02-01-1998,13:00,36,R,ugm-3
02-01-1998,14:00,16,R,ugm-3
02-01-1998,15:00,30,R,ugm-3
02-01-1998,16:00,38,R,ugm-3
02-01-1998,17:00,42,R,ugm-3
02-01-1998,18:00,44,R,ugm-3
02-01-1998,19:00,42,R,ugm-3
02-01-1998,20:00,46,R,ugm-3
02-01-1998,21:00,52,R,ugm-3
02-01-1998,22:00,54,R,ugm-3
02-01-1998,23:00,52,R,ugm-3
02-01-1998,24:00,58,R,ugm-3
03-01-1998,01:00,56,R,ugm-3
03-01-1998,02:00,60,R,ugm-3
03-01-1998,03:00,64,R,ugm-3
03-01-1998,04:00,70,R,ugm-3
03-01-1998,05:00,74,R,ugm-3
03-01-1998,06:00,74,R,ugm-3
03-01-1998,07:00,72,R,ugm-3
03-01-1998,08:00,72,R,ugm-3
03-01-1998,09:00,74,R,ugm-3
03-01-1998,10:00,72,R,ugm-3
03-01-1998,11:00,78,R,ugm-3
03-01-1998,12:00,78,R,ugm-3
03-01-1998,13:00,72,R,ugm-3
03-01-1998,14:00,68,R,ugm-3
03-01-1998,15:00,68,R,ugm-3
03-01-1998,16:00,70,R,ugm-3
03-01-1998,17:00,76,R,ugm-3
03-01-1998,18:00,80,R,ugm-3
03-01-1998,19:00,78,R,ugm-3
03-01-1998,20:00,72,R,ugm-3
03-01-1998,21:00,76,R,ugm-3
03-01-1998,22:00,76,R,ugm-3
03-01-1998,23:00,74,R,ugm-3
03-01-1998,24:00,74,R,ugm-3
04-01-1998,01:00,76,R,ugm-3
04-01-1998,02:00,74,R,ugm-3
04-01-1998,03:00,76,R,ugm-3
04-01-1998,04:00,72,R,ugm-3
04-01-1998,05:00,70,R,ugm-3
04-01-1998,06:00,70,R,ugm-3
04-01-1998,07:00,68,R,ugm-3
04-01-1998,08:00,68,R,ugm-3
04-01-1998,09:00,68,R,ugm-3
04-01-1998,10:00,62,R,ugm-3
04-01-1998,11:00,62,R,ugm-3
04-01-1998,12:00,76,R,ugm-3
04-01-1998,13:00,78,R,ugm-3
04-01-1998,14:00,76,R,ugm-3
04-01-1998,15:00,74,R,ugm-3
04-01-1998,16:00,76,R,ugm-3
04-01-1998,17:00,68,R,ugm-3
04-01-1998,18:00,68,R,ugm-3
04-01-1998,19:00,68,R,ugm-3
04-01-1998,20:00,74,R,ugm-3
04-01-1998,21:00,76,R,ugm-3
04-01-1998,22:00,80,R,ugm-3
04-01-1998,23:00,74,R,ugm-3
04-01-1998,24:00,72,R,ugm-3
05-01-1998,01:00,58,R,ugm-3
05-01-1998,02:00,64,R,ugm-3
05-01-1998,03:00,72,R,ugm-3
05-01-1998,04:00,72,R,ugm-3
05-01-1998,05:00,70,R,ugm-3
05-01-1998,06:00,68,R,ugm-3
05-01-1998,07:00,64,R,ugm-3
05-01-1998,08:00,58,R,ugm-3
05-01-1998,09:00,62,R,ugm-3
05-01-1998,10:00,60,R,ugm-3
05-01-1998,11:00,52,R,ugm-3
05-01-1998,12:00,36,R,ugm-3
05-01-1998,13:00,36,R,ugm-3
05-01-1998,14:00,50,R,ugm-3
05-01-1998,15:00,,,
05-01-1998,16:00,26,R,ugm-3
05-01-1998,17:00,26,R,ugm-3
05-01-1998,18:00,4,R,ugm-3
05-01-1998,19:00,4,R,ugm-3
05-01-1998,20:00,2,R,ugm-3
05-01-1998,21:00,2,R,ugm-3
05-01-1998,22:00,12,R,ugm-3
05-01-1998,23:00,6,R,ugm-3
05-01-1998,24:00,18,R,ugm-3
06-01-1998,01:00,46,R,ugm-3
06-01-1998,02:00,50,R,ugm-3
06-01-1998,03:00,48,R,ugm-3
06-01-1998,04:00,48,R,ugm-3
06-01-1998,05:00,46,R,ugm-3
06-01-1998,06:00,42,R,ugm-3
06-01-1998,07:00,38,R,ugm-3
06-01-1998,08:00,40,R,ugm-3
06-01-1998,09:00,36,R,ugm-3
06-01-1998,10:00,36,R,ugm-3
06-01-1998,11:00,44,R,ugm-3
06-01-1998,12:00,44,R,ugm-3
06-01-1998,13:00,30,R,ugm-3
06-01-1998,14:00,22,R,ugm-3
06-01-1998,15:00,24,R,ugm-3
06-01-1998,16:00,,,
06-01-1998,17:00,,,
06-01-1998,18:00,,,
06-01-1998,19:00,44,R,ugm-3
06-01-1998,20:00,42,R,ugm-3
06-01-1998,21:00,38,R,ugm-3
06-01-1998,22:00,40,R,ugm-3
06-01-1998,23:00,36,R,ugm-3
06-01-1998,24:00,46,R,ugm-3
07-01-1998,01:00,56,R,ugm-3
07-01-1998,02:00,60,R,ugm-3
07-01-1998,03:00,60,R,ugm-3
07-01-1998,04:00,64,R,ugm-3
07-01-1998,05:00,66,R,ugm-3
07-01-1998,06:00,68,R,ugm-3
07-01-1998,07:00,68,R,ugm-3
07-01-1998,08:00,64,R,ugm-3
07-01-1998,09:00,58,R,ugm-3
07-01-1998,10:00,58,R,ugm-3
07-01-1998,11:00,62,R,ugm-3
07-01-1998,12:00,68,R,ugm-3
07-01-1998,13:00,68,R,ugm-3
07-01-1998,14:00,66,R,ugm-3
07-01-1998,15:00,62,R,ugm-3
07-01-1998,16:00,58,R,ugm-3
07-01-1998,17:00,54,R,ugm-3
07-01-1998,18:00,62,R,ugm-3
07-01-1998,19:00,50,R,ugm-3
07-01-1998,20:00,68,R,ugm-3
07-01-1998,21:00,54,R,ugm-3
07-01-1998,22:00,62,R,ugm-3
07-01-1998,23:00,72,R,ugm-3
07-01-1998,24:00,68,R,ugm-3
08-01-1998,01:00,70,R,ugm-3
08-01-1998,02:00,76,R,ugm-3
08-01-1998,03:00,74,R,ugm-3
08-01-1998,04:00,76,R,ugm-3
08-01-1998,05:00,68,R,ugm-3
08-01-1998,06:00,66,R,ugm-3
08-01-1998,07:00,66,R,ugm-3
08-01-1998,08:00,66,R,ugm-3
08-01-1998,09:00,68,R,ugm-3
08-01-1998,10:00,62,R,ugm-3
08-01-1998,11:00,68,R,ugm-3
08-01-1998,12:00,66,R,ugm-3
08-01-1998,13:00,66,R,ugm-3
08-01-1998,14:00,64,R,ugm-3
08-01-1998,15:00,64,R,ugm-3
08-01-1998,16:00,64,R,ugm-3
08-01-1998,17:00,64,R,ugm-3
08-01-1998,18:00,58,R,ugm-3
08-01-1998,19:00,54,R,ugm-3
08-01-1998,20:00,56,R,ugm-3
08-01-1998,21:00,62,R,ugm-3
08-01-1998,22:00,62,R,ugm-3
08-01-1998,23:00,66,R,ugm-3
08-01-1998,24:00,64,R,ugm-3
09-01-1998,01:00,68,R,ugm-3
09-01-1998,02:00,66,R,ugm-3
09-01-1998,03:00,66,R,ugm-3
09-01-1998,04:00,66,R,ugm-3
09-01-1998,05:00,66,R,ugm-3
09-01-1998,06:00,66,R,ugm-3
09-01-1998,07:00,62,R,ugm-3
09-01-1998,08:00,58,R,ugm-3
09-01-1998,09:00,50,R,ugm-3
09-01-1998,10:00,46,R,ugm-3
09-01-1998,11:00,50,R,ugm-3
09-01-1998,12:00,56,R,ugm-3
09-01-1998,13:00,56,R,ugm-3
09-01-1998,14:00,50,R,ugm-3
09-01-1998,15:00,44,R,ugm-3
09-01-1998,16:00,42,R,ugm-3
09-01-1998,17:00,48,R,ugm-3
09-01-1998,18:00,48,R,ugm-3
09-01-1998,19:00,42,R,ugm-3
09-01-1998,20:00,42,R,ugm-3
09-01-1998,21:00,36,R,ugm-3
09-01-1998,22:00,32,R,ugm-3
09-01-1998,23:00,32,R,ugm-3
09-01-1998,24:00,34,R,ugm-3
10-01-1998,01:00,38,R,ugm-3
10-01-1998,02:00,40,R,ugm-3
10-01-1998,03:00,40,R,ugm-3
10-01-1998,04:00,40,R,ugm-3
10-01-1998,05:00,40,R,ugm-3
10-01-1998,06:00,46,R,ugm-3
10-01-1998,07:00,46,R,ugm-3
10-01-1998,08:00,44,R,ugm-3
10-01-1998,09:00,38,R,ugm-3
10-01-1998,10:00,36,R,ugm-3
10-01-1998,11:00,40,R,ugm-3
10-01-1998,12:00,44,R,ugm-3
10-01-1998,13:00,42,R,ugm-3
10-01-1998,14:00,40,R,ugm-3
10-01-1998,15:00,34,R,ugm-3
10-01-1998,16:00,30,R,ugm-3
10-01-1998,17:00,28,R,ugm-3
10-01-1998,18:00,26,R,ugm-3
10-01-1998,19:00,32,R,ugm-3
10-01-1998,20:00,32,R,ugm-3
10-01-1998,21:00,32,R,ugm-3
10-01-1998,22:00,6,R,ugm-3
10-01-1998,23:00,8,R,ugm-3
10-01-1998,24:00,32,R,ugm-3
11-01-1998,01:00,28,R,ugm-3
11-01-1998,02:00,28,R,ugm-3
11-01-1998,03:00,26,R,ugm-3
11-01-1998,04:00,38,R,ugm-3
11-01-1998,05:00,30,R,ugm-3
11-01-1998,06:00,14,R,ugm-3
11-01-1998,07:00,14,R,ugm-3
11-01-1998,08:00,10,R,ugm-3
11-01-1998,09:00,14,R,ugm-3
11-01-1998,10:00,30,R,ugm-3
11-01-1998,11:00,30,R,ugm-3
11-01-1998,12:00,34,R,ugm-3
11-01-1998,13:00,32,R,ugm-3
11-01-1998,14:00,32,R,ugm-3
11-01-1998,15:00,34,R,ugm-3
11-01-1998,16:00,32,R,ugm-3
11-01-1998,17:00,30,R,ugm-3
11-01-1998,18:00,28,R,ugm-3
11-01-1998,19:00,26,R,ugm-3
11-01-1998,20:00,22,R,ugm-3
11-01-1998,21:00,30,R,ugm-3
11-01-1998,22:00,32,R,ugm-3
11-01-1998,23:00,36,R,ugm-3
11-01-1998,24:00,36,R,ugm-3
12-01-1998,01:00,36,R,ugm-3
12-01-1998,02:00,40,R,ugm-3
12-01-1998,03:00,40,R,ugm-3
12-01-1998,04:00,36,R,ugm-3
12-01-1998,05:00,40,R,ugm-3
12-01-1998,06:00,36,R,ugm-3
12-01-1998,07:00,36,R,ugm-3
12-01-1998,08:00,38,R,ugm-3
12-01-1998,09:00,46,R,ugm-3
12-01-1998,10:00,50,R,ugm-3
12-01-1998,11:00,46,R,ugm-3
12-01-1998,12:00,40,R,ugm-3
12-01-1998,13:00,36,R,ugm-3
12-01-1998,14:00,34,R,ugm-3
12-01-1998,15:00,36,R,ugm-3
12-01-1998,16:00,24,R,ugm-3
12-01-1998,17:00,18,R,ugm-3
12-01-1998,18:00,24,R,ugm-3
12-01-1998,19:00,26,R,ugm-3
12-01-1998,20:00,22,R,ugm-3
12-01-1998,21:00,18,R,ugm-3
12-01-1998,22:00,24,R,ugm-3
12-01-1998,23:00,26,R,ugm-3
12-01-1998,24:00,22,R,ugm-3
13-01-1998,01:00,20,R,ugm-3
13-01-1998,02:00,8,R,ugm-3
13-01-1998,03:00,0,R,ugm-3
13-01-1998,04:00,0,R,ugm-3
13-01-1998,05:00,0,R,ugm-3
13-01-1998,06:00,0,R,ugm-3
13-01-1998,07:00,2,R,ugm-3
13-01-1998,08:00,4,R,ugm-3
13-01-1998,09:00,10,R,ugm-3
13-01-1998,10:00,10,R,ugm-3
13-01-1998,11:00,8,R,ugm-3
13-01-1998,12:00,8,R,ugm-3
13-01-1998,13:00,14,R,ugm-3
13-01-1998,14:00,12,R,ugm-3
13-01-1998,15:00,10,R,ugm-3
13-01-1998,16:00,16,R,ugm-3
13-01-1998,17:00,10,R,ugm-3
13-01-1998,18:00,6,R,ugm-3
13-01-1998,19:00,2,R,ugm-3
13-01-1998,20:00,8,R,ugm-3
13-01-1998,21:00,18,R,ugm-3
13-01-1998,22:00,22,R,ugm-3
13-01-1998,23:00,30,R,ugm-3
13-01-1998,24:00,34,R,ugm-3
14-01-1998,01:00,46,R,ugm-3
14-01-1998,02:00,56,R,ugm-3
14-01-1998,03:00,44,R,ugm-3
14-01-1998,04:00,38,R,ugm-3
14-01-1998,05:00,42,R,ugm-3
14-01-1998,06:00,24,R,ugm-3
14-01-1998,07:00,38,R,ugm-3
14-01-1998,08:00,70,R,ugm-3
14-01-1998,09:00,66,R,ugm-3
14-01-1998,10:00,58,R,ugm-3
14-01-1998,11:00,58,R,ugm-3
14-01-1998,12:00,60,R,ugm-3
14-01-1998,13:00,50,R,ugm-3
14-01-1998,14:00,54,R,ugm-3
14-01-1998,15:00,60,R,ugm-3
14-01-1998,16:00,60,R,ugm-3
14-01-1998,17:00,52,R,ugm-3
14-01-1998,18:00,44,R,ugm-3
14-01-1998,19:00,40,R,ugm-3
14-01-1998,20:00,46,R,ugm-3
14-01-1998,21:00,48,R,ugm-3
14-01-1998,22:00,38,R,ugm-3
14-01-1998,23:00,42,R,ugm-3
14-01-1998,24:00,46,R,ugm-3
15-01-1998,01:00,50,R,ugm-3
15-01-1998,02:00,60,R,ugm-3
15-01-1998,03:00,60,R,ugm-3
15-01-1998,04:00,58,R,ugm-3
15-01-1998,05:00,60,R,ugm-3
15-01-1998,06:00,64,R,ugm-3
15-01-1998,07:00,64,R,ugm-3
15-01-1998,08:00,54,R,ugm-3
15-01-1998,09:00,52,R,ugm-3
15-01-1998,10:00,48,R,ugm-3
15-01-1998,11:00,54,R,ugm-3
15-01-1998,12:00,62,R,ugm-3
15-01-1998,13:00,64,R,ugm-3
15-01-1998,14:00,64,R,ugm-3
15-01-1998,15:00,52,R,ugm-3
15-01-1998,16:00,48,R,ugm-3
15-01-1998,17:00,36,R,ugm-3
15-01-1998,18:00,40,R,ugm-3
15-01-1998,19:00,26,R,ugm-3
15-01-1998,20:00,36,R,ugm-3
15-01-1998,21:00,48,R,ugm-3
15-01-1998,22:00,46,R,ugm-3
15-01-1998,23:00,50,R,ugm-3
15-01-1998,24:00,50,R,ugm-3
16-01-1998,01:00,54,R,ugm-3
16-01-1998,02:00,54,R,ugm-3
16-01-1998,03:00,58,R,ugm-3
16-01-1998,04:00,64,R,ugm-3
16-01-1998,05:00,66,R,ugm-3
16-01-1998,06:00,64,R,ugm-3
16-01-1998,07:00,60,R,ugm-3
16-01-1998,08:00,48,R,ugm-3
16-01-1998,09:00,30,R,ugm-3
16-01-1998,10:00,36,R,ugm-3
16-01-1998,11:00,40,R,ugm-3
16-01-1998,12:00,48,R,ugm-3
16-01-1998,13:00,48,R,ugm-3
16-01-1998,14:00,50,R,ugm-3
16-01-1998,15:00,52,R,ugm-3
16-01-1998,16:00,44,R,ugm-3
16-01-1998,17:00,38,R,ugm-3
16-01-1998,18:00,22,R,ugm-3
16-01-1998,19:00,26,R,ugm-3
16-01-1998,20:00,16,R,ugm-3
16-01-1998,21:00,24,R,ugm-3
16-01-1998,22:00,42,R,ugm-3
16-01-1998,23:00,30,R,ugm-3
16-01-1998,24:00,26,R,ugm-3
17-01-1998,01:00,30,R,ugm-3
17-01-1998,02:00,32,R,ugm-3
17-01-1998,03:00,34,R,ugm-3
17-01-1998,04:00,48,R,ugm-3
17-01-1998,05:00,44,R,ugm-3
17-01-1998,06:00,46,R,ugm-3
17-01-1998,07:00,48,R,ugm-3
17-01-1998,08:00,48,R,ugm-3
17-01-1998,09:00,46,R,ugm-3
17-01-1998,10:00,48,R,ugm-3
17-01-1998,11:00,48,R,ugm-3
17-01-1998,12:00,56,R,ugm-3
17-01-1998,13:00,54,R,ugm-3
17-01-1998,14:00,50,R,ugm-3
17-01-1998,15:00,52,R,ugm-3
17-01-1998,16:00,50,R,ugm-3
17-01-1998,17:00,50,R,ugm-3
17-01-1998,18:00,44,R,ugm-3
17-01-1998,19:00,46,R,ugm-3
17-01-1998,20:00,40,R,ugm-3
17-01-1998,21:00,44,R,ugm-3
17-01-1998,22:00,46,R,ugm-3
17-01-1998,23:00,52,R,ugm-3
17-01-1998,24:00,52,R,ugm-3
18-01-1998,01:00,54,R,ugm-3
18-01-1998,02:00,50,R,ugm-3
18-01-1998,03:00,54,R,ugm-3
18-01-1998,04:00,58,R,ugm-3
18-01-1998,05:00,58,R,ugm-3
18-01-1998,06:00,60,R,ugm-3
18-01-1998,07:00,56,R,ugm-3
18-01-1998,08:00,54,R,ugm-3
18-01-1998,09:00,52,R,ugm-3
18-01-1998,10:00,50,R,ugm-3
18-01-1998,11:00,46,R,ugm-3
18-01-1998,12:00,56,R,ugm-3
18-01-1998,13:00,68,R,ugm-3
18-01-1998,14:00,68,R,ugm-3
18-01-1998,15:00,64,R,ugm-3
18-01-1998,16:00,58,R,ugm-3
18-01-1998,17:00,56,R,ugm-3
18-01-1998,18:00,58,R,ugm-3
18-01-1998,19:00,60,R,ugm-3
18-01-1998,20:00,60,R,ugm-3
18-01-1998,21:00,54,R,ugm-3
18-01-1998,22:00,60,R,ugm-3
18-01-1998,23:00,52,R,ugm-3
18-01-1998,24:00,38,R,ugm-3
19-01-1998,01:00,34,R,ugm-3
19-01-1998,02:00,36,R,ugm-3
19-01-1998,03:00,36,R,ugm-3
19-01-1998,04:00,48,R,ugm-3
19-01-1998,05:00,56,R,ugm-3
19-01-1998,06:00,60,R,ugm-3
19-01-1998,07:00,60,R,ugm-3
19-01-1998,08:00,62,R,ugm-3
19-01-1998,09:00,64,R,ugm-3
19-01-1998,10:00,64,R,ugm-3
19-01-1998,11:00,62,R,ugm-3
19-01-1998,12:00,54,R,ugm-3
19-01-1998,13:00,66,R,ugm-3
19-01-1998,14:00,66,R,ugm-3
19-01-1998,15:00,66,R,ugm-3
19-01-1998,16:00,62,R,ugm-3
19-01-1998,17:00,54,R,ugm-3
19-01-1998,18:00,54,R,ugm-3
19-01-1998,19:00,48,R,ugm-3
19-01-1998,20:00,56,R,ugm-3
19-01-1998,21:00,64,R,ugm-3
19-01-1998,22:00,70,R,ugm-3
19-01-1998,23:00,72,R,ugm-3
19-01-1998,24:00,72,R,ugm-3
20-01-1998,01:00,74,R,ugm-3
20-01-1998,02:00,72,R,ugm-3
20-01-1998,03:00,72,R,ugm-3
20-01-1998,04:00,70,R,ugm-3
20-01-1998,05:00,68,R,ugm-3
20-01-1998,06:00,58,R,ugm-3
20-01-1998,07:00,58,R,ugm-3
20-01-1998,08:00,50,R,ugm-3
20-01-1998,09:00,40,R,ugm-3
20-01-1998,10:00,36,R,ugm-3
20-01-1998,11:00,38,R,ugm-3
20-01-1998,12:00,34,R,ugm-3
20-01-1998,13:00,34,R,ugm-3
20-01-1998,14:00,26,R,ugm-3
20-01-1998,15:00,18,R,ugm-3
20-01-1998,16:00,,,
20-01-1998,17:00,,,
20-01-1998,18:00,,,
20-01-1998,19:00,,,
20-01-1998,20:00,,,
20-01-1998,21:00,,,
20-01-1998,22:00,,,
20-01-1998,23:00,,,
20-01-1998,24:00,,,
21-01-1998,01:00,,,
21-01-1998,02:00,34,R,ugm-3
21-01-1998,03:00,36,R,ugm-3
21-01-1998,04:00,36,R,ugm-3
21-01-1998,05:00,28,R,ugm-3
21-01-1998,06:00,24,R,ugm-3
21-01-1998,07:00,28,R,ugm-3
21-01-1998,08:00,20,R,ugm-3
21-01-1998,09:00,26,R,ugm-3
21-01-1998,10:00,26,R,ugm-3
21-01-1998,11:00,20,R,ugm-3
21-01-1998,12:00,16,R,ugm-3
21-01-1998,13:00,18,R,ugm-3
21-01-1998,14:00,20,R,ugm-3
21-01-1998,15:00,28,R,ugm-3
21-01-1998,16:00,28,R,ugm-3
21-01-1998,17:00,16,R,ugm-3
21-01-1998,18:00,8,R,ugm-3
21-01-1998,19:00,4,R,ugm-3
21-01-1998,20:00,2,R,ugm-3
21-01-1998,21:00,4,R,ugm-3
21-01-1998,22:00,14,R,ugm-3
21-01-1998,23:00,26,R,ugm-3
21-01-1998,24:00,30,R,ugm-3
22-01-1998,01:00,12,R,ugm-3
22-01-1998,02:00,36,R,ugm-3
22-01-1998,03:00,38,R,ugm-3
22-01-1998,04:00,32,R,ugm-3
22-01-1998,05:00,38,R,ugm-3
22-01-1998,06:00,42,R,ugm-3
22-01-1998,07:00,38,R,ugm-3
22-01-1998,08:00,34,R,ugm-3
22-01-1998,09:00,34,R,ugm-3
22-01-1998,10:00,30,R,ugm-3
22-01-1998,11:00,30,R,ugm-3
22-01-1998,12:00,32,R,ugm-3
22-01-1998,13:00,32,R,ugm-3
22-01-1998,14:00,34,R,ugm-3
22-01-1998,15:00,32,R,ugm-3
22-01-1998,16:00,10,R,ugm-3
22-01-1998,17:00,2,R,ugm-3
22-01-1998,18:00,2,R,ugm-3
22-01-1998,19:00,2,R,ugm-3
22-01-1998,20:00,0,R,ugm-3
22-01-1998,21:00,0,R,ugm-3
22-01-1998,22:00,0,R,ugm-3
22-01-1998,23:00,2,R,ugm-3
22-01-1998,24:00,2,R,ugm-3
23-01-1998,01:00,0,R,ugm-3
23-01-1998,02:00,0,R,ugm-3
23-01-1998,03:00,2,R,ugm-3
23-01-1998,04:00,2,R,ugm-3
23-01-1998,05:00,2,R,ugm-3
23-01-1998,06:00,6,R,ugm-3
23-01-1998,07:00,2,R,ugm-3
23-01-1998,08:00,2,R,ugm-3
23-01-1998,09:00,2,R,ugm-3
23-01-1998,10:00,4,R,ugm-3
23-01-1998,11:00,4,R,ugm-3
23-01-1998,12:00,8,R,ugm-3
23-01-1998,13:00,12,R,ugm-3
23-01-1998,14:00,20,R,ugm-3
23-01-1998,15:00,22,R,ugm-3
23-01-1998,16:00,16,R,ugm-3
23-01-1998,17:00,2,R,ugm-3
23-01-1998,18:00,0,R,ugm-3
23-01-1998,19:00,0,R,ugm-3
23-01-1998,20:00,2,R,ugm-3
23-01-1998,21:00,2,R,ugm-3
23-01-1998,22:00,0,R,ugm-3
23-01-1998,23:00,2,R,ugm-3
23-01-1998,24:00,2,R,ugm-3
24-01-1998,01:00,16,R,ugm-3
24-01-1998,02:00,60,R,ugm-3
24-01-1998,03:00,66,R,ugm-3
24-01-1998,04:00,58,R,ugm-3
24-01-1998,05:00,54,R,ugm-3
24-01-1998,06:00,48,R,ugm-3
24-01-1998,07:00,40,R,ugm-3
24-01-1998,08:00,32,R,ugm-3
24-01-1998,09:00,26,R,ugm-3
24-01-1998,10:00,30,R,ugm-3
24-01-1998,11:00,32,R,ugm-3
24-01-1998,12:00,30,R,ugm-3
24-01-1998,13:00,44,R,ugm-3
24-01-1998,14:00,48,R,ugm-3
24-01-1998,15:00,54,R,ugm-3
24-01-1998,16:00,50,R,ugm-3
24-01-1998,17:00,44,R,ugm-3
24-01-1998,18:00,48,R,ugm-3
24-01-1998,19:00,34,R,ugm-3
24-01-1998,20:00,36,R,ugm-3
24-01-1998,21:00,38,R,ugm-3
24-01-1998,22:00,38,R,ugm-3
24-01-1998,23:00,46,R,ugm-3
24-01-1998,24:00,62,R,ugm-3
25-01-1998,01:00,62,R,ugm-3
25-01-1998,02:00,60,R,ugm-3
25-01-1998,03:00,62,R,ugm-3
25-01-1998,04:00,58,R,ugm-3
25-01-1998,05:00,58,R,ugm-3
25-01-1998,06:00,56,R,ugm-3
25-01-1998,07:00,54,R,ugm-3
25-01-1998,08:00,52,R,ugm-3
25-01-1998,09:00,48,R,ugm-3
25-01-1998,10:00,48,R,ugm-3
25-01-1998,11:00,50,R,ugm-3
25-01-1998,12:00,50,R,ugm-3
25-01-1998,13:00,62,R,ugm-3
25-01-1998,14:00,66,R,ugm-3
25-01-1998,15:00,64,R,ugm-3
25-01-1998,16:00,62,R,ugm-3
25-01-1998,17:00,62,R,ugm-3
25-01-1998,18:00,56,R,ugm-3
25-01-1998,19:00,46,R,ugm-3
25-01-1998,20:00,46,R,ugm-3
25-01-1998,21:00,46,R,ugm-3
25-01-1998,22:00,46,R,ugm-3
25-01-1998,23:00,42,R,ugm-3
25-01-1998,24:00,40,R,ugm-3
26-01-1998,01:00,40,R,ugm-3
26-01-1998,02:00,48,R,ugm-3
26-01-1998,03:00,44,R,ugm-3
26-01-1998,04:00,38,R,ugm-3
26-01-1998,05:00,24,R,ugm-3
26-01-1998,06:00,14,R,ugm-3
26-01-1998,07:00,6,R,ugm-3
26-01-1998,08:00,12,R,ugm-3
26-01-1998,09:00,10,R,ugm-3
26-01-1998,10:00,28,R,ugm-3
26-01-1998,11:00,40,R,ugm-3
26-01-1998,12:00,62,R,ugm-3
26-01-1998,13:00,66,R,ugm-3
26-01-1998,14:00,68,R,ugm-3
26-01-1998,15:00,62,R,ugm-3
26-01-1998,16:00,54,R,ugm-3
26-01-1998,17:00,30,R,ugm-3
26-01-1998,18:00,34,R,ugm-3
26-01-1998,19:00,36,R,ugm-3
26-01-1998,20:00,20,R,ugm-3
26-01-1998,21:00,28,R,ugm-3
26-01-1998,22:00,32,R,ugm-3
26-01-1998,23:00,10,R,ugm-3
26-01-1998,24:00,4,R,ugm-3
27-01-1998,01:00,,,
27-01-1998,02:00,,,
27-01-1998,03:00,,,
27-01-1998,04:00,,,
27-01-1998,05:00,,,
27-01-1998,06:00,,,
27-01-1998,07:00,,,
27-01-1998,08:00,,,
27-01-1998,09:00,,,
27-01-1998,10:00,,,
27-01-1998,11:00,,,
27-01-1998,12:00,,,
27-01-1998,13:00,,,
27-01-1998,14:00,,,
27-01-1998,15:00,,,
27-01-1998,16:00,,,
27-01-1998,17:00,,,
27-01-1998,18:00,,,
27-01-1998,19:00,,,
27-01-1998,20:00,,,
27-01-1998,21:00,,,
27-01-1998,22:00,,,
27-01-1998,23:00,,,
27-01-1998,24:00,,,
28-01-1998,01:00,,,
28-01-1998,02:00,,,
28-01-1998,03:00,,,
28-01-1998,04:00,,,
28-01-1998,05:00,,,
28-01-1998,06:00,,,
28-01-1998,07:00,,,
28-01-1998,08:00,,,
28-01-1998,09:00,,,
28-01-1998,10:00,,,
28-01-1998,11:00,,,
28-01-1998,12:00,,,
28-01-1998,13:00,,,
28-01-1998,14:00,,,
28-01-1998,15:00,,,
28-01-1998,16:00,,,
28-01-1998,17:00,,,
28-01-1998,18:00,,,
28-01-1998,19:00,,,
28-01-1998,20:00,,,
28-01-1998,21:00,,,
28-01-1998,22:00,,,
28-01-1998,23:00,,,
28-01-1998,24:00,,,
29-01-1998,01:00,,,
29-01-1998,02:00,,,
29-01-1998,03:00,,,
29-01-1998,04:00,,,
29-01-1998,05:00,,,
29-01-1998,06:00,,,
29-01-1998,07:00,,,
29-01-1998,08:00,,,
29-01-1998,09:00,,,
29-01-1998,10:00,,,
29-01-1998,11:00,,,
29-01-1998,12:00,,,
29-01-1998,13:00,,,
29-01-1998,14:00,,,
29-01-1998,15:00,,,
29-01-1998,16:00,,,
29-01-1998,17:00,,,
29-01-1998,18:00,,,
29-01-1998,19:00,,,
29-01-1998,20:00,,,
29-01-1998,21:00,,,
29-01-1998,22:00,,,
29-01-1998,23:00,,,
29-01-1998,24:00,,,
30-01-1998,01:00,,,
30-01-1998,02:00,,,
30-01-1998,03:00,,,
30-01-1998,04:00,,,
30-01-1998,05:00,,,
30-01-1998,06:00,,,
30-01-1998,07:00,,,
30-01-1998,08:00,,,
30-01-1998,09:00,,,
30-01-1998,10:00,,,
30-01-1998,11:00,,,
30-01-1998,12:00,,,
30-01-1998,13:00,,,
30-01-1998,14:00,,,
30-01-1998,15:00,,,
30-01-1998,16:00,,,
30-01-1998,17:00,,,
30-01-1998,18:00,,,
30-01-1998,19:00,,,
30-01-1998,20:00,,,
30-01-1998,21:00,,,
30-01-1998,22:00,,,
30-01-1998,23:00,,,
30-01-1998,24:00,,,
31-01-1998,01:00,,,
31-01-1998,02:00,,,
31-01-1998,03:00,,,
31-01-1998,04:00,,,
31-01-1998,05:00,,,
31-01-1998,06:00,,,
31-01-1998,07:00,,,
31-01-1998,08:00,,,
31-01-1998,09:00,,,
31-01-1998,10:00,,,
31-01-1998,11:00,,,
31-01-1998,12:00,,,
31-01-1998,13:00,,,
31-01-1998,14:00,,,
31-01-1998,15:00,,,
31-01-1998,16:00,,,
31-01-1998,17:00,,,
31-01-1998,18:00,,,
31-01-1998,19:00,,,
31-01-1998,20:00,,,
31-01-1998,21:00,,,
31-01-1998,22:00,,,
31-01-1998,23:00,,,
31-01-1998,24:00,,,
01-02-1998,01:00,42,R,ugm-3
01-02-1998,02:00,38,R,ugm-3
01-02-1998,03:00,42,R,ugm-3
01-02-1998,04:00,40,R,ugm-3
01-02-1998,05:00,34,R,ugm-3
01-02-1998,06:00,26,R,ugm-3
01-02-1998,07:00,18,R,ugm-3
01-02-1998,08:00,8,R,ugm-3
01-02-1998,09:00,10,R,ugm-3
01-02-1998,10:00,20,R,ugm-3
01-02-1998,11:00,34,R,ugm-3
01-02-1998,12:00,42,R,ugm-3
01-02-1998,13:00,54,R,ugm-3
01-02-1998,14:00,48,R,ugm-3
01-02-1998,15:00,28,R,ugm-3
01-02-1998,16:00,28,R,ugm-3
01-02-1998,17:00,22,R,ugm-3
01-02-1998,18:00,6,R,ugm-3
01-02-1998,19:00,8,R,ugm-3
01-02-1998,20:00,6,R,ugm-3
01-02-1998,21:00,2,R,ugm-3
01-02-1998,22:00,2,R,ugm-3
01-02-1998,23:00,2,R,ugm-3
01-02-1998,24:00,2,R,ugm-3
02-02-1998,01:00,0,R,ugm-3
02-02-1998,02:00,0,R,ugm-3
02-02-1998,03:00,2,R,ugm-3
02-02-1998,04:00,2,R,ugm-3
02-02-1998,05:00,8,R,ugm-3
02-02-1998,06:00,4,R,ugm-3
02-02-1998,07:00,6,R,ugm-3
02-02-1998,08:00,10,R,ugm-3
02-02-1998,09:00,10,R,ugm-3
02-02-1998,10:00,14,R,ugm-3
02-02-1998,11:00,12,R,ugm-3
02-02-1998,12:00,36,R,ugm-3
02-02-1998,13:00,54,R,ugm-3
02-02-1998,14:00,54,R,ugm-3
02-02-1998,15:00,50,R,ugm-3
02-02-1998,16:00,42,R,ugm-3
02-02-1998,17:00,42,R,ugm-3
02-02-1998,18:00,38,R,ugm-3
02-02-1998,19:00,26,R,ugm-3
02-02-1998,20:00,20,R,ugm-3
02-02-1998,21:00,14,R,ugm-3
02-02-1998,22:00,2,R,ugm-3
02-02-1998,23:00,0,R,ugm-3
02-02-1998,24:00,0,R,ugm-3
03-02-1998,01:00,-2,R,ugm-3
03-02-1998,02:00,4,R,ugm-3
03-02-1998,03:00,0,R,ugm-3
03-02-1998,04:00,6,R,ugm-3
03-02-1998,05:00,18,R,ugm-3
03-02-1998,06:00,24,R,ugm-3
03-02-1998,07:00,18,R,ugm-3
03-02-1998,08:00,10,R,ugm-3
03-02-1998,09:00,8,R,ugm-3
03-02-1998,10:00,18,R,ugm-3
03-02-1998,11:00,24,R,ugm-3
03-02-1998,12:00,28,R,ugm-3
03-02-1998,13:00,32,R,ugm-3
03-02-1998,14:00,,,
03-02-1998,15:00,,,
03-02-1998,16:00,24,R,ugm-3
03-02-1998,17:00,14,R,ugm-3
03-02-1998,18:00,6,R,ugm-3
03-02-1998,19:00,2,R,ugm-3
03-02-1998,20:00,2,R,ugm-3
03-02-1998,21:00,2,R,ugm-3
03-02-1998,22:00,2,R,ugm-3
03-02-1998,23:00,4,R,ugm-3
03-02-1998,24:00,4,R,ugm-3
04-02-1998,01:00,2,R,ugm-3
04-02-1998,02:00,2,R,ugm-3
04-02-1998,03:00,14,R,ugm-3
04-02-1998,04:00,24,R,ugm-3
04-02-1998,05:00,24,R,ugm-3
04-02-1998,06:00,28,R,ugm-3
04-02-1998,07:00,26,R,ugm-3
04-02-1998,08:00,24,R,ugm-3
04-02-1998,09:00,22,R,ugm-3
04-02-1998,10:00,22,R,ugm-3
04-02-1998,11:00,24,R,ugm-3
04-02-1998,12:00,22,R,ugm-3
04-02-1998,13:00,26,R,ugm-3
04-02-1998,14:00,38,R,ugm-3
04-02-1998,15:00,46,R,ugm-3
04-02-1998,16:00,34,R,ugm-3
04-02-1998,17:00,42,R,ugm-3
04-02-1998,18:00,50,R,ugm-3
04-02-1998,19:00,42,R,ugm-3
04-02-1998,20:00,30,R,ugm-3
04-02-1998,21:00,26,R,ugm-3
04-02-1998,22:00,26,R,ugm-3
04-02-1998,23:00,30,R,ugm-3
04-02-1998,24:00,24,R,ugm-3
05-02-1998,01:00,20,R,ugm-3
05-02-1998,02:00,26,R,ugm-3
05-02-1998,03:00,26,R,ugm-3
05-02-1998,04:00,28,R,ugm-3
05-02-1998,05:00,28,R,ugm-3
05-02-1998,06:00,26,R,ugm-3
05-02-1998,07:00,22,R,ugm-3
05-02-1998,08:00,18,R,ugm-3
05-02-1998,09:00,24,R,ugm-3
05-02-1998,10:00,20,R,ugm-3
05-02-1998,11:00,20,R,ugm-3
05-02-1998,12:00,24,R,ugm-3
05-02-1998,13:00,30,R,ugm-3
05-02-1998,14:00,36,R,ugm-3
05-02-1998,15:00,34,R,ugm-3
05-02-1998,16:00,30,R,ugm-3
05-02-1998,17:00,28,R,ugm-3
05-02-1998,18:00,18,R,ugm-3
05-02-1998,19:00,14,R,ugm-3
05-02-1998,20:00,10,R,ugm-3
05-02-1998,21:00,12,R,ugm-3
05-02-1998,22:00,16,R,ugm-3
05-02-1998,23:00,16,R,ugm-3
05-02-1998,24:00,28,R,ugm-3
06-02-1998,01:00,38,R,ugm-3
06-02-1998,02:00,40,R,ugm-3
06-02-1998,03:00,38,R,ugm-3
06-02-1998,04:00,40,R,ugm-3
06-02-1998,05:00,46,R,ugm-3
06-02-1998,06:00,48,R,ugm-3
06-02-1998,07:00,50,R,ugm-3
06-02-1998,08:00,44,R,ugm-3
06-02-1998,09:00,38,R,ugm-3
06-02-1998,10:00,38,R,ugm-3
06-02-1998,11:00,44,R,ugm-3
06-02-1998,12:00,56,R,ugm-3
06-02-1998,13:00,58,R,ugm-3
06-02-1998,14:00,60,R,ugm-3
06-02-1998,15:00,58,R,ugm-3
06-02-1998,16:00,58,R,ugm-3
06-02-1998,17:00,60,R,ugm-3
06-02-1998,18:00,64,R,ugm-3
06-02-1998,19:00,62,R,ugm-3
06-02-1998,20:00,64,R,ugm-3
06-02-1998,21:00,62,R,ugm-3
06-02-1998,22:00,62,R,ugm-3
06-02-1998,23:00,64,R,ugm-3
06-02-1998,24:00,64,R,ugm-3
07-02-1998,01:00,64,R,ugm-3
07-02-1998,02:00,66,R,ugm-3
07-02-1998,03:00,70,R,ugm-3
07-02-1998,04:00,68,R,ugm-3